Flag Weather past 2 weeks in Göttingen, Lower Saxony, Germany

Now
41 °F

Scattered clouds.


Feels Like: 35 °F
Forecast: 30 / 38 °F
Wind: 9 mph from Southeast

Location: Kassel / Calden

Current Time: Nov 27, 2014 at 4:00:11 PM

Latest Report: Nov 27, 2014 at 3:20 PM


Visibility: 6 mi

Pressure: 29.83 "Hg

Humidity: 81%

Dew point: 36 °F

Location of GöttingenLocation

Historic Weather in Göttingen — Graph

°F

Göttingen temperature yesterday

Maximum temperature yesterday: 43 °F (at 2:20 PM)
Minimum temperature yesterday: 34 °F (at 6:50 AM)
Average temperature yesterday: 37 °F

Past Weeks' High & Low Weather Summary

 TemperatureHumidityPressure
High54 °F (Nov 17, 2:20 PM)100% (Nov 12, 2:20 PM)30.33 "Hg (Nov 12, 2:20 PM)
Low27 °F (Nov 25, 6:20 AM)66% (Nov 26, 2:20 PM)29.47 "Hg (Nov 16, 12:50 PM)
Average43 °F89%29.98 "Hg
* Reported Nov 12 2:20 PM — Nov 27 2:50 PM, Göttingen, Weather by CustomWeather, © 2014

Note: Actual official high and low records may vary slightly from our data, if they occured in-between our weather recording intervals... More about our weather records

Advertising

Göttingen weather history for previous 24 hours

 ConditionsComfort  
Time TempWeatherWind HumidityBarometerVisibility
2:50 PM
Nov 27
41 °FScattered clouds.6 mph81%29.83 "Hg6 mi
2:20 PM39 °FScattered clouds.7 mph81%29.83 "Hg6 mi
1:50 PM39 °FClear.7 mph81%29.83 "Hg6 mi
1:20 PM39 °FClear.6 mph81%29.83 "Hg6 mi
12:50 PM39 °FPartly sunny.6 mph81%29.83 "Hg6 mi
12:20 PM39 °FClear.7 mph81%29.83 "Hg6 mi
11:50 AM37 °FClear.7 mph87%29.86 "Hg6 mi
11:20 AM37 °FClear.8 mph87%29.86 "Hg6 mi
10:50 AM36 °FClear.8 mph87%29.86 "Hg5 mi
10:20 AM36 °FClear.6 mph87%29.86 "Hg6 mi
9:20 AM34 °FClear.7 mph87%29.89 "Hg4 mi
8:50 AM32 °FClear.5 mph93%29.89 "Hg4 mi
8:20 AM32 °FPassing clouds.2 mph93%29.89 "Hg4 mi
7:50 AM32 °FPassing clouds.6 mph93%29.89 "Hg4 mi
7:20 AM32 °FPassing clouds.7 mph93%29.89 "Hg4 mi
6:50 AM32 °FPassing clouds.5 mph93%29.89 "Hg5 mi
6:20 AM32 °FPassing clouds.7 mph93%29.89 "Hg5 mi
5:50 AM32 °FClear.7 mph93%29.89 "Hg5 mi
9:50 PM
Nov 26
37 °FClear.5 mph81%29.98 "Hg10 mi
9:20 PM37 °FClear.8 mph81%29.98 "Hg10 mi
8:50 PM37 °FClear.7 mph81%29.98 "Hg10 mi
8:20 PM37 °FClear.5 mph81%30.01 "Hg10 mi
7:50 PM37 °FClear.6 mph81%30.01 "Hg10 mi
7:20 PM37 °FClear.9 mph81%30.01 "Hg10 mi
6:50 PM37 °FClear.7 mph81%30.01 "Hg10 mi
6:20 PM37 °FClear.8 mph81%30.01 "Hg10 mi
5:50 PM37 °FClear.9 mph81%30.01 "Hg10 mi
5:20 PM37 °FClear.9 mph81%30.01 "Hg10 mi
4:50 PM37 °FClear.10 mph81%30.01 "Hg10 mi
4:20 PM37 °FSunny.13 mph75%30.01 "Hg10 mi
Weather by CustomWeather, © 2014

See weather overviewHow to use our weather pages